Regional Weather Roundup
Issued by NWS

Home | Current Version | Previous Version | Graphics & Text | Print | Product List | Glossary On
Versions: 1 2 3 4 5 6 7 8 9 10 11 12 13 14 15 16 17 18 19 20 21 22 23 24 25 26 27 28 29 30 31 32 33 34 35 36 37 38 39 40 41 42 43 44 45 46 47 48 49 50
754
ASUS44 KLIX 250705
RWRLA
LOUISIANA WEATHER ROUNDUP
NATIONAL WEATHER SERVICE NEW ORLEANS LA
200 AM CDT SAT OCT 25 2014

NOTE: "FAIR" INDICATES FEW OR NO CLOUDS BELOW 12,000 FEET WITH NO
      SIGNIFICANT WEATHER AND/OR OBSTRUCTIONS TO VISIBILITY.
      SKY/WX - SKY CONDITION AND SIGNIFICANT WEATHER.
      TMP - AIR TEMPERATURE.    DP   - DEWPOINT TEMPERATURE.
      RH  - RELATIVE HUMIDITY.  PRES - PRESSURE.
      HX  - HEAT INDEX.         WCI  - WIND CHILL INDEX.

*  THESE STATIONS ARE NOT NWS OR FAA STATIONS AND ARE NOT UNDER
   NWS QUALITY CONTROL.

LAZ040-048-061>063-065-066-069-250800-
SOUTHEAST LOUISIANA

CITY           SKY/WX    TMP DP  RH WIND       PRES   REMARKS
N.O. AUDUBON   NOT AVBL
N.O. INTL ARPT CLEAR     63  52  67 N8        30.10S
N.O. LAKEFRONT CLEAR     67  52  58 N15       30.10S
N.O. DOWNTOWN* FAIR      66  48  52 N6        30.11S
SLIDELL        CLEAR     49  45  86 CALM      30.09F
BATON ROUGE    CLEAR     51  48  89 CALM      30.11F
BOOTHVILLE     CLEAR     68  58  70 N7        30.08S
BELLE CHASSE   CLEAR     52  49  89 CALM      30.10S
BOGALUSA*        N/A     47  44  89 CALM      30.12S
NEW ROADS*     FAIR      49  48  97 CALM      30.12F
GONZALES*      FAIR      52  52 100 CALM      30.11S
HAMMOND*       CLEAR     50  46  87 CALM      30.12S
HOUMA*         CLEAR     56  50  81 N5        30.10S
PORT FOURCHON* NOT AVBL

$$

LAZ041-044-053-054-250800-
SOUTHWEST LOUISIANA

CITY           SKY/WX    TMP DP  RH WIND       PRES   REMARKS
LAKE CHARLES   CLEAR     53  51  93 CALM      30.13S
LAFAYETTE      CLEAR     55  53  93 CALM      30.12F
PATTERSON      CLEAR     54  50  87 NW3       30.14R
SALT POINT       N/A     59  52  77 CALM      30.11S
NEW IBERIA     CLEAR     55  51  86 N3        30.12F
CHENAULT AIRPK CLEAR     54  51  89 CALM      30.14R

$$

LAZ027-028-250800-
CENTRAL LOUISIANA

CITY           SKY/WX    TMP DP  RH WIND       PRES   REMARKS
FORT POLK      CLEAR     51  49  93 N1        30.13S
ALEXANDRIA INT CLEAR     50  49  96 CALM      30.12S
ALEXANDRIA     CLEAR     46  45  96 CALM      30.14R FOG

$$

LAZ001-002-250800-
NORTHWEST LOUISIANA

CITY           SKY/WX    TMP DP  RH WIND       PRES   REMARKS
SHREVEPORT     CLEAR     55  53  93 CALM      30.12S
BARKSDALE AFB  CLEAR     54  53  97 SE2       30.13S
DTN SHREVEPORT CLEAR     58  54  86 CALM      30.13S

$$

LAZ014-016-250800-
NORTHEAST LOUISIANA

CITY           SKY/WX    TMP DP  RH WIND       PRES   REMARKS
MONROE         PTCLDY    50  48  93 CALM      30.14R FOG
TALLULAH       CLEAR     45  43  93 CALM      30.13F

$$




USA.gov is the U.S. government's official web portal to all federal, state and local government web resources and services.